Location: Unspecified
(0.0000°N, 0.0000°E)
Time: 04:59:54
(UTC+00:00)

Vanguard 1 - Pass Details

Date: 19 December 2023
Orbit: 653 x 3826 km, 34.3° (Epoch: 22 February)

Event Time Altitude Azimuth Distance (km) Brightness Sun altitude
Rises 21:42:15 0° 309° (NW) 6,940 14.5 -49.7°
Reaches altitude 10° 21:46:21 10° 309° (NW) 6,216 14.2 -50.5°
Enters shadow 22:01:29 59° 315° (NW) 4,151 12.9 -53.4°
Maximum altitude 22:08:36 86° 39° (NE) 3,830 - -54.7°
Exits shadow 22:25:42 23° 126° (SE) 5,336 13.6 -57.7°
Drops below altitude 10° 22:30:19 10° 126° (SE) 6,097 14.0 -58.5°
Sets 22:34:16 0° 126° (SE) 6,811 14.3 -59.1°
